Regional Weather Roundup
Issued by NWS Lake Charles, LA

Home | Current Version | Previous Version | Text Only | Print | Product List | Glossary On
Versions: 1 2 3 4 5 6 7 8 9 10 11 12 13 14 15 16 17 18 19 20 21 22 23 24 25 26 27
000
ASUS44 KLCH 281910
RWRLCH
REGIONAL WEATHER ROUNDUP
NATIONAL WEATHER SERVICE LAKE CHARLES LA
200 PM CDT WED JUN 28 2017

Note: "fair" indicates few or no clouds below 12,000 feet with no
significant weather and/or obstructions to visibility.


ACROSS SOUTHEAST TEXAS

CITY           SKY/WX    TMP DP  RH WIND       PRES   REMARKS
BEAUMONT         N/A    N/A N/A N/A MISG        N/A
BEAUMONT CITY  MOCLDY   N/A N/A N/A MISG      29.93S
ORANGE         LGT RAIN  79  76  91 E9        29.95F
JASPER           N/A     87  73  64 E5        29.96F
$$

ACROSS CENTRAL LOUISIANA

CITY           SKY/WX    TMP DP  RH WIND       PRES   REMARKS
LEESVILLE      PTSUNNY   85  73  66 E12       29.94F
FULLERTON      FAIR      86  72  62 SE8       29.93F
ALEXANDRIA INT MOSUNNY   87  71  58 S8        29.94F
ESLER FIELD    MOSUNNY   89  73  59 SE9       29.96F
DERIDDER       MOCLDY    84  71  63 SE7       29.97F
OAKDALE        PTCLDY    84  71  65 SE6       29.96F
OPELOUSAS      FAIR      82  69  66 SE12      29.97F
$$

ACROSS SOUTHWEST AND SOUTH CENTRAL LOUISIANA

CITY           SKY/WX    TMP DP  RH WIND       PRES   REMARKS
SULPHUR        CLOUDY    79  75  85 SE10G16   29.96S FOG
LAKE CHARLES   CLOUDY    80  76  87 E14       29.95F
CHENNAULT INT  PTSUNNY   79  72  78 SE12      29.96F
CAMERON PHI    MOCLDY    77  73  88 SE16G23   29.93S
DEQUINCY       MOCLDY    83  72  69 SE12G17   29.95F
JENNINGS       CLOUDY    79  71  75 SE9       29.96F
LAFAYETTE      CLOUDY    80  73  79 E3        29.98F
NEW IBERIA     LGT RAIN  76  71  85 SE15      30.00S
ABBEVILLE      NOT AVBL
PATTERSON      HVY RAIN  73  73 100 SE10G21   30.01S FOG
SALT POINT       N/A     76  72  87 SE8       29.97F
$$

SELECTED SITES ACROSS THE REGION

CITY           SKY/WX    TMP DP  RH WIND       PRES   REMARKS
HOUSTON BUSH   MOSUNNY   89  72  56 E12G22    29.89F
HOUSTON HOBBY  MOSUNNY   87  73  62 E13       29.89F
GALVESTON      PTSUNNY   82  76  81 E12       29.90F
COLLEGE STAT   MOSUNNY   87  71  58 E12       29.91F
CONROE         MOSUNNY   88  71  57 E13       29.91F
HUNTSVILLE     MOSUNNY   88  68  51 E7        29.93F
LUFKIN         PTSUNNY   85  70  60 E10       29.94F
SHREVEPORT     MOSUNNY   88  68  51 SE13G18   29.96F
MONROE         PTSUNNY   87  66  49 SE8       29.99F
NATCHEZ MS     PTSUNNY   85  71  63 E3        29.99F
BATON ROUGE    CLOUDY    83  73  72 E14       29.99F
N.O. INTL ARPT CLOUDY    84  70  62 S14G20    30.00F
SLIDELL        CLOUDY    86  67  52 S8        30.01S
$$

MARINE REPORTS

STATION/POSITION TIME  SKY/WX   TEMP    WIND        PRES    VSBY
                                AIR SEA DIR/SP/G
                 (UTC)          (F)     (DEG/KT/KT) (MB)    (MI)
BUOY 30 S HIGH I 1750            79 82   90/ 10/ 12 1012.7
WVE H/P(F/S)=  3/ 5

SEA RIM ST PARK  1800            81     100/ 13/ 17 1013.7F
PORT ARTHUR      1848            81 83  110/  9/ 14 1013.2F
SABINE PASS N    1848            79 85  130/ 14/ 17 1014.3F
TEXAS POINT      NOT AVBL
CALCASIEU PASS   1848            77 82  150/ 17/ 23   N/A
LK CHARLES BEACH 1848            80 81              1014.7F
MARSH ISLAND     1800            78                   N/A
FRESH WATER LOCK 1848            76 82  140/ 11/ 17 1014.5F
AMERADA PASS     1848            74 81  140/  9/ 14 1015.8S
$$




USA.gov is the U.S. government's official web portal to all federal, state and local government web resources and services.